TimeCST,TemperatureF,Dew PointF,Humidity,Sea Level PressureIn,VisibilityMPH,Wind Direction,Wind SpeedMPH,Gust SpeedMPH,PrecipitationIn,Events,Conditions,WindDirDegrees,DateUTC
12:53 AM,1.9,-2.9,80,30.36,10.0,South,5.8,-,N/A,,Clear,180,2014-02-03 06:53:00
1:53 AM,3.0,-2.0,80,30.36,10.0,SE,5.8,-,N/A,,Clear,140,2014-02-03 07:53:00
2:53 AM,1.9,-2.9,80,30.36,10.0,South,5.8,-,N/A,,Clear,170,2014-02-03 08:53:00
3:53 AM,-0.0,-5.1,79,30.35,10.0,SSE,4.6,-,N/A,,Clear,150,2014-02-03 09:53:00
4:53 AM,-0.9,-5.1,83,30.34,10.0,SSE,8.1,-,N/A,,Clear,150,2014-02-03 10:53:00
5:53 AM,-0.0,-5.1,79,30.34,10.0,SSE,6.9,-,N/A,,Clear,150,2014-02-03 11:53:00
6:53 AM,1.0,-2.9,83,30.34,10.0,South,8.1,-,N/A,,Clear,170,2014-02-03 12:53:00
7:53 AM,3.0,-2.0,80,30.35,10.0,South,6.9,-,N/A,,Clear,170,2014-02-03 13:53:00
8:53 AM,7.0,1.0,77,30.37,10.0,SSE,5.8,-,N/A,,Clear,160,2014-02-03 14:53:00
9:53 AM,12.9,5.0,71,30.37,10.0,SSE,8.1,-,N/A,,Clear,150,2014-02-03 15:53:00
10:53 AM,16.0,6.1,65,30.36,10.0,South,10.4,-,N/A,,Clear,170,2014-02-03 16:53:00
11:53 AM,19.0,8.1,62,30.35,10.0,South,10.4,-,N/A,,Clear,170,2014-02-03 17:53:00
12:53 PM,21.0,10.0,63,30.32,10.0,SE,9.2,-,N/A,,Clear,140,2014-02-03 18:53:00
1:53 PM,21.9,10.0,60,30.31,10.0,SSE,8.1,-,N/A,,Clear,160,2014-02-03 19:53:00
2:53 PM,23.0,10.9,60,30.29,10.0,ESE,4.6,-,N/A,,Mostly Cloudy,120,2014-02-03 20:53:00
3:53 PM,23.0,12.0,63,30.28,10.0,ESE,5.8,-,N/A,,Mostly Cloudy,110,2014-02-03 21:53:00
4:53 PM,24.1,14.0,65,30.27,10.0,East,8.1,-,N/A,,Overcast,100,2014-02-03 22:53:00
5:53 PM,24.1,14.0,65,30.26,10.0,ESE,6.9,-,N/A,,Overcast,120,2014-02-03 23:53:00
6:53 PM,25.0,14.0,63,30.26,10.0,ESE,5.8,-,N/A,,Overcast,120,2014-02-04 00:53:00
7:53 PM,24.1,14.0,65,30.27,10.0,ESE,6.9,-,N/A,,Overcast,110,2014-02-04 01:53:00
8:53 PM,24.1,14.0,65,30.27,10.0,East,8.1,-,N/A,,Overcast,100,2014-02-04 02:53:00
9:53 PM,24.1,15.1,69,30.28,10.0,East,6.9,-,N/A,,Overcast,90,2014-02-04 03:53:00
10:53 PM,24.1,15.1,69,30.28,10.0,East,5.8,-,N/A,,Overcast,80,2014-02-04 04:53:00
11:53 PM,24.1,16.0,71,30.27,10.0,East,6.9,-,N/A,,Overcast,90,2014-02-04 05:53:00